Theta_e
300 297 297 298 297 297 299 299 296 296 297 299 299 299 300 300 300 301 305 304 306 311 311 310 313 316 316 318 320 323 321 321 324 323 324 325 326 326 327 328 330 333 331 329 327 328 329 333 339 338 353 354 351 351
300 298 297 297 297 297 299 299 297 296 297 299 299 299 299 300 299 301 306 305 305 305 309 307 308 309 310 313 317 320 321 326 320 321 323 325 327 328 332 330 329 335 329 331 328 329 345 342 353 351 350 352 353 351
301 299 297 297 297 297 298 297 297 297 296 298 299 299 299 299 299 299 304 306 307 310 312 311 313 310 307 306 310 317 317 324 326 327 330 328 329 332 332 331 331 332 333 337 334 334 339 343 344 345 347 350 348 346
300 299 297 297 296 297 297 298 298 298 298 297 297 299 299 299 299 299 305 307 307 310 312 317 312 313 312 311 308 310 316 321 324 324 324 327 327 328 331 332 336 338 338 332 332 338 340 341 344 345 347 345 345 344
299 298 297 297 296 297 298 299 298 298 298 297 298 299 299 299 297 301 305 307 307 310 315 316 314 313 313 312 311 309 312 318 320 321 322 323 324 328 329 328 331 334 338 338 339 342 344 346 344 343 343 345 343 343
298 297 297 297 296 296 296 299 297 298 298 296 296 297 297 296 296 305 312 309 308 308 313 317 316 316 316 315 312 312 313 315 317 319 320 321 325 326 326 328 328 332 332 333 337 337 340 342 342 341 343 342 342 342
297 297 297 297 296 296 297 297 297 296 296 295 295 296 295 295 300 307 310 308 306 308 314 317 317 317 318 318 317 317 316 317 317 317 319 320 321 322 324 327 334 330 329 330 331 335 339 337 339 338 338 339 338 339
297 297 296 297 297 297 297 297 296 295 295 295 295 294 300 300 301 306 308 306 305 309 312 317 318 318 318 318 319 318 318 318 318 317 318 319 321 322 321 321 324 327 327 329 330 330 333 334 334 336 334 335 337 338
298 297 297 298 297 298 298 297 296 294 295 295 294 300 304 306 309 309 306 306 307 310 315 315 318 321 318 319 321 318 318 318 318 319 318 319 319 320 321 321 321 324 324 327 328 328 328 332 332 332 333 333 334 337
298 297 297 298 297 298 298 297 296 294 295 294 299 307 310 309 307 307 309 310 310 310 313 316 316 319 317 318 318 321 320 320 324 320 320 319 320 320 320 321 322 323 323 323 325 328 329 331 330 330 331 332 332 335
299 298 297 299 297 298 298 297 295 294 294 302 307 310 308 306 309 310 313 313 314 315 314 315 316 317 316 321 322 321 324 322 322 322 321 321 321 321 320 322 321 322 322 323 324 325 326 327 329 327 326 329 332 331
299 298 297 298 297 298 298 297 294 298 303 303 304 307 308 309 311 313 313 313 314 316 315 316 316 316 318 319 322 321 319 319 319 321 321 321 329 326 324 322 321 321 321 321 321 323 324 325 324 326 325 325 330 332
299 298 298 297 297 298 298 296 295 297 299 304 306 309 310 311 315 312 314 314 317 318 319 319 319 317 318 319 322 321 320 319 319 321 321 329 324 322 321 320 320 320 320 321 322 322 323 323 324 324 325 323 327 329
299 298 298 298 298 299 298 294 294 298 302 308 307 307 311 311 312 313 315 316 316 317 318 316 316 316 319 322 320 322 321 321 322 322 326 324 322 320 319 318 319 320 321 321 322 322 323 324 324 324 324 325 324 330
299 298 298 298 298 297 295 294 294 300 305 308 307 312 308 311 312 313 313 316 316 316 316 316 316 316 317 318 319 320 322 323 323 325 323 321 321 320 319 317 318 319 319 321 321 322 323 324 325 326 325 324 323 329
299 298 299 298 297 296 294 295 298 303 306 309 309 311 310 312 312 312 313 318 316 316 315 315 316 317 317 317 319 320 320 322 323 321 319 319 319 320 319 314 315 316 317 318 320 321 323 325 326 327 326 326 327 330
299 300 299 298 296 295 296 300 302 306 308 310 310 310 311 312 313 317 318 316 314 314 316 314 315 317 316 316 317 318 322 321 319 318 318 319 318 316 316 316 317 318 320 320 319 321 326 328 329 329 330 330 330 330
302 300 297 296 296 297 299 302 306 307 309 310 309 312 313 315 316 316 315 314 314 314 314 315 315 316 316 316 317 319 317 317 316 318 318 316 314 314 315 316 318 318 318 320 321 322 323 324 324 324 324 322 322 322
300 299 296 297 300 302 305 305 306 309 310 311 313 313 314 314 313 313 312 312 312 312 314 314 315 316 316 317 317 316 316 316 317 316 314 314 314 314 315 317 318 320 321 321 321 321 321 321 321 320 319 318 318 317
298 296 295 296 300 305 307 308 307 310 311 313 311 311 311 312 311 312 312 312 312 312 316 316 316 318 317 317 316 316 316 316 314 315 316 315 314 315 316 318 319 320 319 320 319 320 320 320 319 319 319 318 315 315
301 299 297 300 303 305 307 307 308 309 309 310 311 311 310 311 312 311 312 311 311 315 316 315 315 315 315 314 314 313 312 312 315 315 315 316 315 315 316 316 316 317 317 317 316 316 316 316 316 316 316 316 315 315
301 299 303 302 305 305 307 306 308 309 310 310 310 310 311 312 313 310 307 310 312 313 314 314 314 312 310 310 310 311 314 314 314 313 313 314 316 315 316 315 315 316 316 316 316 316 316 315 315 315 315 315 315 314
301 302 304 304 305 306 307 307 309 309 310 311 310 311 311 310 307 305 308 308 308 308 307 307 308 308 309 312 314 313 313 313 314 314 315 315 316 316 317 317 316 315 315 315 315 314 314 314 314 314 314 314 313 313
300 304 305 305 306 307 307 309 308 308 309 310 309 310 309 307 306 307 308 309 309 308 311 312 313 314 314 314 314 314 314 314 314 314 315 316 317 317 317 317 317 316 315 315 316 316 315 315 315 316 316 315 313 311
306 305 305 303 307 307 309 309 309 308 310 309 310 309 309 307 308 308 310 311 310 311 314 314 314 314 314 314 314 314 314 315 315 316 315 317 317 317 317 318 318 318 317 317 317 317 317 316 316 316 313 311 310 309
311 307 312 308 309 309 309 310 307 309 311 311 311 311 311 311 310 309 312 310 310 311 314 314 314 314 315 315 316 315 315 316 317 317 317 316 317 316 317 316 315 315 316 316 317 316 316 315 314 312 310 309 308 309
309 309 307 306 306 305 306 306 307 309 313 313 312 314 314 312 311 311 310 310 311 312 313 313 314 314 315 314 314 314 314 315 317 317 316 315 314 314 313 313 311 311 311 310 309 309 310 310 310 310 310 310 310 310
305 304 307 306 306 306 310 312 314 314 313 313 314 314 315 313 314 312 313 312 312 312 312 313 314 315 314 314 315 315 315 316 315 314 313 312 312 311 311 310 309 308 309 309 309 310 310 310 310 310 310 310 310 310
306 306 307 311 311 311 314 315 313 312 313 313 314 314 313 312 312 314 314 314 311 311 314 315 315 314 313 313 313 314 315 314 314 313 311 311 310 309 309 309 309 309 309 309 309 309 309 310 311 311 311 311 310 310
312 312 314 315 314 314 313 312 312 311 310 311 311 312 312 312 311 312 312 310 312 313 313 313 312 313 312 311 310 310 310 310 310 310 311 311 311 310 310 310 310 310 310 310 309 308 307 308 308 309 310 310 310 309
313 313 313 313 312 312 312 312 311 310 310 310 310 311 311 312 312 312 311 310 310 310 310 310 309 309 309 309 310 311 311 310 311 311 310 311 311 311 311 311 311 311 311 311 311 311 311 311 311 310 310 310 309 308
312 313 313 314 314 313 312 312 312 312 312 312 312 312 312 312 311 311 310 311 311 312 310 311 311 311 311 311 311 310 310 310 311 311 312 312 312 311 311 312 311 311 311 311 311 311 311 310 310 309 309 308 307 306
313 313 313 313 314 313 313 313 313 313 313 314 313 313 313 313 313 312 311 312 311 310 311 311 310 311 311 311 311 310 310 309 307 307 308 309 309 309 311 311 310 310 310 310 309 309 309 308 308 307 306 305 304 303
Wind_Speed
14 10 9 11 10 9 10 11 11 10 8 12 14 14 15 16 18 14 6 5 7 6 6 4 5 7 4 5 9 5 3 9 7 12 11 10 9 10 16 13 17 14 15 13 14 17 19 8 3 11 6 9 7 7
16 14 11 12 11 11 12 11 10 9 7 10 13 13 14 14 16 11 5 4 6 7 6 7 9 11 11 11 9 1 6 7 3 7 9 7 11 7 4 11 8 7 11 10 11 10 6 6 9 7 5 5 6 5
18 16 14 12 11 10 8 9 8 9 8 8 11 12 13 13 13 9 8 8 9 6 8 10 5 9 10 14 12 7 5 5 3 6 7 6 6 6 8 12 11 14 6 6 5 8 5 4 6 7 8 7 5 4
18 17 16 13 12 11 9 9 9 9 10 9 10 12 12 12 12 10 8 8 8 8 5 6 4 6 3 9 14 12 6 4 6 7 7 7 5 4 11 6 10 7 3 12 11 3 3 7 8 6 6 5 4 3
19 18 17 15 12 12 11 10 10 10 10 10 10 11 12 12 13 10 9 6 4 7 5 4 4 5 6 5 10 13 9 6 7 7 6 8 6 5 8 10 8 6 1 4 1 9 5 6 5 4 3 6 3 5
19 19 18 16 13 13 12 11 10 10 10 10 11 12 12 12 12 7 5 4 3 4 4 3 9 6 6 6 8 11 11 7 7 7 5 7 5 3 7 11 11 7 4 8 6 8 5 3 3 4 4 3 3 2
20 19 19 16 13 12 11 10 9 10 10 11 12 13 13 12 7 6 5 4 2 5 4 4 5 8 5 9 9 6 9 6 6 7 9 7 6 7 11 12 10 5 3 6 5 7 6 2 2 4 3 2 3 1
22 21 19 17 14 12 10 9 9 9 10 11 12 13 9 4 4 5 2 5 3 5 5 4 4 7 11 5 7 6 7 6 7 8 6 8 5 5 8 14 4 3 6 7 0 6 7 6 1 2 2 3 4 6
24 22 20 18 15 13 11 9 8 8 9 10 12 4 1 4 3 2 3 4 5 5 5 4 5 3 7 3 3 3 4 5 4 8 9 6 8 8 6 12 11 0 3 9 9 9 9 6 2 1 3 3 6 9
26 23 20 18 16 13 11 8 8 8 9 9 4 7 2 3 2 2 3 4 4 3 4 6 1 4 5 4 5 5 3 4 2 6 7 7 11 10 9 8 3 4 6 9 10 11 7 8 6 2 4 4 4 6
27 23 21 19 16 13 11 8 6 6 2 5 7 2 5 5 4 4 3 3 5 4 5 7 4 4 1 2 2 3 3 4 4 5 5 5 7 8 11 5 2 4 8 10 9 8 9 9 4 5 5 4 5 7
28 24 21 18 15 13 10 7 3 3 2 6 4 1 3 4 3 5 3 3 5 2 3 3 3 6 1 3 3 3 4 3 4 4 3 5 4 9 8 7 6 6 8 8 11 11 11 10 10 10 5 8 3 11
29 24 20 18 15 13 10 7 5 6 3 3 5 4 3 2 0 5 8 4 2 2 1 2 5 3 3 2 3 4 4 6 2 3 4 3 5 4 6 4 9 11 12 13 11 12 14 15 14 14 10 11 12 8
29 23 19 17 14 13 9 7 4 2 4 4 5 1 4 5 6 2 1 2 4 1 4 4 2 1 1 4 3 3 3 4 3 6 3 3 2 4 6 10 12 14 14 13 10 14 15 14 15 17 14 13 13 12
26 22 18 15 14 12 9 7 5 4 5 4 4 3 8 5 4 3 2 4 4 5 3 1 3 3 2 3 3 1 3 3 2 2 3 4 8 5 9 10 13 11 12 12 14 14 15 14 15 14 16 17 16 9
23 17 14 15 14 11 9 5 5 5 4 3 4 5 1 4 6 6 6 5 1 3 3 3 3 1 3 3 3 5 2 1 1 3 5 7 9 11 11 8 10 15 15 14 16 15 16 17 17 17 11 8 7 10
17 7 16 15 13 10 9 5 7 4 3 3 4 5 4 3 3 5 3 1 5 2 1 3 3 3 4 2 3 5 3 3 3 5 6 7 10 11 12 13 15 14 12 12 13 12 6 1 6 8 9 7 9 11
8 15 18 17 14 9 6 5 3 3 6 6 2 2 3 4 4 3 1 2 3 3 4 3 4 5 3 3 4 4 5 5 6 6 9 9 9 13 13 9 11 8 7 6 5 5 6 8 11 12 13 16 21 21
15 16 16 16 10 3 5 5 4 3 3 1 3 3 2 3 3 2 1 3 5 5 4 3 4 2 2 2 4 5 6 8 9 9 6 11 10 10 10 6 1 5 9 10 11 11 12 14 14 15 15 18 17 17
13 14 15 11 3 4 4 3 3 4 2 3 3 2 1 2 2 3 4 4 4 3 3 3 3 3 4 6 7 7 8 6 4 4 3 3 6 5 7 6 9 15 15 14 13 14 15 16 15 15 17 18 22 19
10 7 6 4 7 5 4 2 4 1 3 1 4 3 1 3 1 2 4 6 3 2 3 3 4 4 9 12 13 11 9 7 4 2 2 2 6 8 9 13 15 14 13 13 12 15 16 14 16 18 20 21 24 25
5 5 4 3 3 3 4 3 3 1 2 1 2 3 3 3 3 3 4 2 3 3 2 4 5 7 6 6 7 8 1 4 6 8 7 6 3 6 10 13 15 13 14 14 15 16 15 18 21 22 25 24 22 20
3 2 4 4 2 1 3 3 2 2 2 3 2 1 1 2 2 4 2 1 2 3 5 7 9 7 6 6 6 9 9 9 7 7 8 11 11 11 13 14 18 17 15 15 16 18 20 23 23 24 26 22 23 20
1 3 3 2 4 2 1 3 2 2 2 1 0 1 1 1 2 1 2 2 2 7 2 3 3 3 6 8 4 8 10 12 12 13 12 10 10 13 16 14 20 20 21 22 20 18 19 18 17 17 18 16 17 16
2 3 3 3 2 0 1 1 1 1 1 0 0 1 2 2 0 1 2 3 4 4 3 8 8 7 5 5 10 12 12 13 13 8 6 10 17 20 19 18 16 14 17 16 15 16 16 17 14 13 13 14 14 14
1 2 0 1 1 1 2 2 2 2 1 2 1 1 2 1 2 2 3 4 3 3 4 5 6 6 7 10 6 8 6 9 14 14 10 9 10 16 16 14 10 7 7 10 15 17 16 16 14 10 13 11 8 11
2 1 2 3 2 1 1 2 2 2 1 1 1 1 2 3 3 1 1 2 2 6 12 13 11 8 9 12 10 7 7 9 12 13 10 15 12 12 14 16 12 8 8 11 11 11 11 10 10 10 10 8 8 8
1 2 2 3 2 3 2 3 2 2 1 2 3 0 3 2 2 0 1 5 8 11 10 10 10 8 12 11 13 12 10 8 7 8 12 13 13 13 12 11 9 13 12 11 7 11 10 10 9 9 7 7 5 4
2 3 3 3 4 4 4 0 2 2 2 1 7 6 4 4 11 10 12 15 16 12 11 11 9 12 12 9 7 11 15 16 11 7 8 7 10 11 10 11 11 11 10 8 10 10 11 10 8 6 4 5 4 2
4 5 3 3 3 1 5 7 9 6 10 10 9 10 9 11 12 10 8 12 17 16 16 14 14 11 6 8 7 9 8 7 6 8 7 7 9 9 8 7 6 6 6 5 5 4 2 3 3 3 2 3 3 2
4 3 11 12 13 9 9 12 17 16 11 11 11 10 9 7 9 4 7 10 11 10 9 8 8 8 10 10 8 7 9 8 7 7 7 7 8 7 6 4 2 2 2 1 1 0 2 2 1 0 1 2 2 4
7 11 10 12 8 7 8 8 9 10 9 8 8 8 7 6 8 6 8 8 7 6 4 5 7 5 5 6 6 10 10 9 7 6 3 6 6 4 2 2 3 3 2 1 0 1 1 2 1 1 1 2 2 2
9 7 6 7 7 7 7 7 6 5 5 5 6 4 4 3 4 4 4 1 7 8 7 7 9 9 6 6 8 8 9 8 7 6 4 4 3 4 5 5 4 2 1 1 1 1 0 1 1 1 2 2 2 3
Wind_Direction
263 263 288 289 292 291 297 314 326 329 336 342 342 347 354 352 352 3 338 350 324 303 310 330 295 284 286 271 262 85 183 222 235 226 240 235 249 236 237 238 196 206 215 227 236 247 246 177 223 257 50 82 47 59
251 255 266 273 282 287 288 293 315 320 317 337 341 343 347 349 348 358 291 348 313 265 334 316 278 273 281 310 321 179 308 289 232 247 233 261 248 230 277 232 223 254 215 237 237 235 79 32 75 76 42 66 54 44
247 250 255 262 272 281 279 290 303 314 305 323 330 334 338 341 340 349 313 318 297 260 253 224 207 213 241 242 263 287 204 359 275 341 319 280 265 352 243 232 264 211 221 253 296 171 123 99 109 75 46 49 61 49
243 247 245 250 261 264 274 286 295 301 307 301 310 325 326 327 326 330 300 322 295 291 278 120 156 213 224 230 224 236 319 299 278 266 260 272 269 260 270 351 294 87 347 237 251 144 127 105 51 42 85 77 89 116
242 243 240 245 255 256 262 275 290 289 299 301 303 310 314 317 318 318 280 276 291 308 326 12 157 153 171 186 209 213 234 271 266 229 236 245 274 359 269 277 265 356 5 294 313 39 326 73 47 28 48 77 81 105
241 234 233 238 250 254 262 266 279 284 291 296 299 305 307 310 321 300 204 179 261 306 277 235 106 163 167 178 184 195 215 234 256 269 262 256 115 276 261 238 227 87 351 11 15 349 341 44 52 23 30 52 99 113
230 228 229 236 243 244 251 267 274 281 284 294 299 302 300 294 285 288 348 346 327 298 251 253 179 157 157 169 185 198 208 232 240 238 253 271 207 185 258 266 97 338 12 5 347 319 255 190 76 48 66 83 186 131
226 226 227 230 234 236 248 263 272 279 284 293 300 306 302 259 246 258 282 268 270 261 266 269 146 174 184 207 182 195 200 217 203 253 240 235 176 224 250 256 233 171 355 297 247 322 294 328 221 121 317 147 166 144
224 224 224 221 225 227 242 255 270 278 284 295 301 274 291 227 231 111 248 264 218 275 298 250 336 124 178 142 261 180 245 218 248 218 236 238 233 230 225 236 266 309 315 315 301 291 286 228 312 196 221 248 255 133
216 219 218 216 218 221 234 248 269 278 288 298 264 210 211 81 154 188 223 198 207 224 240 258 344 196 218 248 196 156 219 218 225 251 263 228 245 248 231 195 248 330 295 291 282 264 311 319 196 184 247 208 259 155
206 210 209 210 211 212 222 242 267 297 240 213 216 139 131 156 201 220 236 227 204 220 203 248 265 31 91 253 244 231 180 244 237 192 223 200 245 238 197 134 182 267 272 272 281 292 285 287 264 243 276 255 209 139
197 201 202 201 199 203 211 234 228 228 289 331 334 235 201 206 208 246 229 194 228 216 243 238 181 234 149 284 219 250 254 256 260 152 250 251 56 44 57 35 348 282 270 277 276 273 269 268 270 272 258 277 73 177
186 190 191 192 193 196 206 224 222 236 285 223 230 215 199 197 225 234 189 200 154 24 283 240 210 229 195 253 237 239 227 239 10 192 221 60 86 51 4 339 311 285 283 280 275 268 264 261 247 251 243 250 207 200
175 182 182 184 188 191 202 206 206 156 244 231 171 316 220 199 230 194 261 204 162 212 243 226 246 12 185 212 252 234 281 321 249 255 68 97 80 12 349 327 324 316 307 298 293 292 282 269 265 240 240 240 254 184
168 170 173 179 180 186 192 194 188 216 263 236 209 227 211 250 94 68 156 178 172 208 287 13 324 255 280 273 233 279 244 246 310 15 347 41 345 352 331 326 306 289 286 286 294 288 274 275 266 250 236 243 226 182
152 151 169 180 178 180 180 171 197 216 239 254 237 266 290 192 218 177 209 144 202 236 285 234 181 273 239 239 232 241 255 329 135 295 315 325 335 332 316 289 283 278 275 273 275 275 275 262 243 237 207 216 194 168
145 146 177 174 171 168 162 202 192 219 258 230 244 214 221 229 281 70 87 119 267 37 223 275 205 208 300 274 258 318 15 346 332 329 316 358 334 316 303 285 271 261 270 282 273 263 266 55 106 122 120 122 118 132
113 145 162 163 151 154 187 223 249 238 233 235 265 233 273 309 51 80 20 5 27 352 315 307 320 238 233 297 346 20 344 337 347 1 346 335 316 301 296 293 281 287 270 239 173 139 127 126 113 100 94 94 93 95
136 147 151 150 170 267 188 194 245 269 224 249 191 213 205 205 118 200 28 12 330 324 285 249 249 263 296 13 336 337 344 347 347 330 309 309 314 317 314 314 353 101 85 90 89 81 78 89 96 98 97 93 87 91
138 142 152 160 187 260 203 177 222 250 223 195 185 244 185 163 240 336 15 345 336 283 257 237 272 18 339 337 342 323 334 353 323 309 314 344 350 1 20 32 77 81 82 85 88 94 85 80 80 91 102 106 98 87
121 148 151 173 203 255 303 213 222 22 277 130 223 252 263 101 1 319 322 356 259 256 247 300 306 341 3 335 318 321 306 294 287 326 345 354 37 51 59 70 75 78 84 81 82 82 83 85 91 95 97 99 99 98
111 150 210 192 261 200 261 198 289 56 257 32 1 0 346 353 16 24 334 289 273 284 332 325 336 331 322 317 305 293 320 77 79 74 65 41 65 73 77 80 83 75 78 80 86 85 91 98 101 100 97 99 105 109
149 213 219 215 249 132 261 228 320 336 311 59 3 6 29 26 6 326 260 267 275 270 282 290 286 276 256 289 101 88 93 94 84 70 70 71 93 86 90 98 98 102 92 78 88 92 91 101 104 106 112 111 119 126
306 267 273 226 194 246 167 69 36 341 23 324 284 249 64 351 344 296 279 263 260 289 248 215 195 122 91 87 83 85 92 99 93 81 86 92 96 115 116 104 94 101 108 111 107 105 111 114 121 122 126 131 122 115
232 288 150 287 294 332 69 143 89 213 258 159 359 206 182 175 131 350 317 313 326 348 46 76 75 77 94 88 86 82 88 100 105 114 135 95 91 92 91 93 94 100 111 109 112 109 120 128 128 132 131 109 107 105
236 216 281 32 136 174 146 183 217 228 217 195 213 198 201 111 50 20 342 332 335 335 37 57 72 80 76 80 79 67 80 121 103 93 122 164 152 116 121 116 101 105 108 115 136 150 150 149 150 125 100 94 89 114
233 156 52 1 65 97 203 237 253 255 174 105 243 230 133 63 37 351 306 306 324 47 91 83 91 106 115 105 92 88 100 76 80 102 100 88 81 74 94 102 91 86 80 89 93 99 105 109 113 118 127 128 113 112
204 184 197 176 209 209 255 210 205 87 131 206 239 357 78 83 45 334 158 137 103 104 94 113 117 81 101 116 123 127 133 121 104 97 99 86 80 81 83 90 85 73 82 59 82 105 107 110 116 115 111 103 95 74
208 187 212 217 208 204 232 147 95 98 116 190 79 81 86 132 167 162 169 157 139 144 155 148 122 126 133 151 180 168 154 148 156 147 113 110 107 106 111 115 117 104 109 95 60 61 53 50 54 74 78 86 81 87
207 197 232 160 157 101 102 115 121 113 84 92 105 105 98 86 92 110 134 147 157 159 158 158 171 178 162 119 111 107 105 100 97 107 102 104 109 102 101 100 98 100 104 115 119 111 102 136 163 171 192 185 176 163
158 177 121 114 112 116 118 120 125 129 127 129 136 129 130 143 144 125 102 123 135 142 146 136 130 131 132 136 144 134 101 91 86 62 52 99 92 81 79 84 100 90 72 28 325 126 153 215 22 226 168 352 22 300
127 104 103 101 107 120 126 124 114 114 114 118 124 132 142 125 113 126 154 168 177 170 99 161 144 111 78 94 101 77 78 108 123 105 75 72 80 68 76 55 53 41 42 73 90 136 156 278 270 328 182 247 285 289
148 145 122 93 106 118 114 109 105 111 117 114 116 132 168 137 105 127 198 286 139 156 170 126 122 108 93 91 103 109 92 93 95 94 89 81 61 19 354 46 44 25 41 25 44 79 181 315 276 290 281 274 262 266